カタログに戻る

STARLINK-31579

運用中通信VLEO
NORAD 59267·PAYLOAD·🇺🇸 United States

打ち上げ Mar 19, 2024 から Vandenberg Space Force Base

Loading…

次のパス (今後24時間)

TLE

最新Source: CelesTrak SupGP

元期: Sep 14, 2026, 20:42 UTC

1 59267C 24050P   26257.86298611  .00033240  00000+0  98257-3 0  2575
2 59267  53.1610  21.7707 0000996  69.4705 137.3099 15.34359281    10

AllMySatでSTARLINK-31579をリアルタイム追跡

Download on the App Store